Regional Weather Roundup
Issued by NWS State College, PA

Home | Current Version | Previous Version | Text Only | Print | Product List | Glossary On
Versions: 1 2 3 4 5 6 7 8 9 10 11 12 13 14 15 16 17 18 19 20 21 22 23 24 25 26 27 28 29 30 31 32 33 34 35 36 37 38 39 40 41 42 43 44 45 46 47 48 49 50
000
ASUS41 KCTP 280403
RWRCTP

REGIONAL WEATHER ROUNDUP
NATIONAL WEATHER SERVICE STATE COLLEGE PA
1100 PM EST THU NOV 27 2014

Note: "fair" indicates few or no clouds below 12,000 feet with no
significant weather and/or obstructions to visibility.

* = STATION THAT DOES NOT REPORT PRECIPITATION /E.G. RAIN...SNOW...ETC/
    THUNDER OR FOG.

PAZ002>004-007>009-013>016-020>023-029>032-280500-
WESTERN PENNSYLVANIA

CITY           SKY/WX    TMP DP  RH WIND       PRES   REMARKS
ERIE           CLOUDY    31  20  63 N15G25    30.19R
MEADVILLE      CLOUDY    27  23  85 NW12      30.15R
FRANKLIN*      CLOUDY    27  21  80 W12G17    30.16R
NEW CASTLE     LGT SNOW  28  27  96 CALM      30.21S VSB 3/4
BEAVER COUNTY  NOT AVBL
BUTLER*        CLOUDY    28  25  86 SW9       30.20R
PITTSBURGH INT CLOUDY    29  24  82 W13       30.20S
PITTSBURGH     CLOUDY    29  21  72 W13G21    30.19S
INDIANA*       CLOUDY    28  27  93 W14       30.18S FOG
LATROBE        CLOUDY    28  25  86 SW10      30.21S
WASHINGTON CO* CLOUDY    28  23  80 W7        30.23S
$$

PAZ004>006-010>012-017>019-024>028-033>037-041-042-045-046-049>053-280500-
CENTRAL PENNSYLVANIA

CITY           SKY/WX    TMP DP  RH WIND       PRES   REMARKS
BRADFORD       CLOUDY    26  20  77 W13G21    30.04S WCI  15
DUBOIS         LGT SNOW  26  24  92 W12       30.09S FOG
CLEARFIELD     FLURRIES  27  23  85 SW6       30.11S
JOHNSTOWN      LGT SNOW  24  21  88 W12G18    30.09S FOG     WCI  13
ALTOONA        CLOUDY    29  22  75 W8        30.13R
STATE COLLEGE  CLOUDY    30  23  75 W12       30.11R
WILLIAMSPORT   LGT SNOW  31  27  85 N5        30.10R FOG
SELINSGROVE    CLOUDY    34  29  82 W3        30.12R
FT INDIANTOWN  FLURRIES  34  29  80 W8        30.11S
CAPITAL CITY   CLOUDY    34  27  75 W7        30.13R
HARRISBURG     MOCLDY    33  28  81 NW7       30.12S
YORK           CLOUDY    34  29  82 W6        30.13R
$$

PAZ038>040-043-044-047-048-054-055-060>062-067>071-280500-
EASTERN PENNSYLVANIA

CITY           SKY/WX    TMP DP  RH WIND       PRES   REMARKS
SCRANTON       CLOUDY    24  20  84 MISG      30.06S
MOUNT POCONO   PTCLDY    21  18  88 NW6       29.99S WCI  13
ALLENTOWN      FAIR      27  23  85 W3        30.10S
QUAKERTOWN*    CLEAR     25  23  93 CALM      30.10S
READING        CLEAR     28  26  92 CALM      30.10S FOG
LANCASTER      CLOUDY    29  27  92 NW6       30.11S
COATESVILLE    CLEAR     28  28 100 W7        30.10S
POTTSTOWN      CLEAR     26  23  88 CALM      30.12S
BLUE BELL      CLEAR     30  28  93 CALM      30.10R
DOYLESTOWN     CLEAR     28  24  85 CALM      30.09S
WILLOW GROVE   NOT AVBL
NORTH PHILA    CLEAR     32  23  69 W6        30.13R
PHILADELPHIA   CLEAR     31  24  75 W6        30.13R
$$



USA.gov is the U.S. government's official web portal to all federal, state and local government web resources and services.